Location: Beugnon
(47.6222°N, 3.7850°E)
Time: 02:00:04
(UTC+00:00)

Cosmos 1300 - Pass Details

Date: 09 April 2020
Orbit: 511 x 515 km, 82.5° (Epoch: 04 June)

Event Time Altitude Azimuth Distance (km) Brightness Sun altitude
Exits shadow 20:18:00 - 197° (SSW) 1,978 5.5 -17.9°
Reaches altitude 10° 20:18:35 10° 198° (SSW) 1,736 5.2 -18.0°
Maximum altitude 20:22:22 64° 281° (W) 575 3.1 -18.5°
Drops below altitude 10° 20:26:11 10° 4° (N) 1,753 5.8 -19.0°
Sets 20:28:21 0° 7° (N) 2,645 6.7 -19.3°
